Regional Weather Roundup
Issued by NWS Newport/Morehead, NC

Home | Current Version | Previous Version | Text Only | Print | Product List | Glossary On
Versions: 1 2 3 4 5 6 7 8 9 10 11 12 13 14 15 16 17 18 19 20 21 22 23 24 25 26 27 28 29 30 31 32 33 34 35 36 37 38 39 40 41 42 43 44 45 46 47 48 49 50
000
ASUS42 KMHX 100725
RWRMHX
WEATHER ROUNDUP FOR EASTERN NORTH CAROLINA
NATIONAL WEATHER SERVICE NEWPORT/MOREHEAD CITY NC
200 AM EST WED FEB 10 2016

NOTE: "FAIR" INDICATES FEW OR NO CLOUDS BELOW 12,000 FEET
WITH NO SIGNIFICANT WEATHER AND/OR OBSTRUCTIONS TO VISIBILITY

NCZ015>017-031-032-045>047-102-103-100800-
NORTH COAST

CITY           SKY/WX    TMP DP  RH WIND       PRES   REMARKS
EDENTON        PTCLDY    35  21  55 W14G22    29.79R
ELIZABETH CITY CLEAR     34  20  56 W14G21    29.76R
KITTY HAWK     SUNNY     37  22  54 W13G23    29.74S
MANTEO         MOCLDY    37  24  61 W12       29.77R

$$

NCZ045>047-081-094-103-104-100800-
CENTRAL COAST

CITY           SKY/WX    TMP DP  RH WIND       PRES   REMARKS
FRISCO         MOCLDY    40  23  50 W13G26    29.79S
SWANQUARTER      N/A     39 N/A N/A W7G24     29.77S

$$

NCZ095-097-098-100-101-100800-
SOUTHERN COAST

CITY           SKY/WX    TMP DP  RH WIND       PRES   REMARKS
BEAUFORT       CLOUDY    38  25  59 W18       29.82S
CEDAR ISLAND     N/A     39 N/A N/A W17G26    29.85S
JACKSONVILLE   CLOUDY    36  14  40 W14G20    29.85R
PINEY ISLAND   CLOUDY   N/A N/A N/A W15       29.81R
WILMINGTON     MOCLDY    37  25  61 W14       29.87R


$$

NCZ011>013-027>030-043-044-078>080-089-090>093-098-100800-
COASTAL PLAIN

CITY           SKY/WX    TMP DP  RH WIND       PRES   REMARKS
AHOSKIE        PTCLDY    29  14  53 CALM      29.80S
CLINTON        CLEAR     31  16  52 W5        29.88S
ELIZABETHTOWN  CLOUDY    35  13  41 W13G22    29.88S
GOLDSBORO      PTCLDY    30  16  55 W9        29.83R
GREENVILLE     PTCLDY    32  18  55 W7        29.86R
HAVELOCK       CLOUDY    38  19  46 W18G24    29.84R
KENANSVILLE    PTCLDY    31  13  48 W6        29.87S
KINSTON        PTCLDY    31  16  52 W5        29.85S
NEW BERN       CLOUDY    36  16  44 W12G20    29.84R
RICHLANDS      CLOUDY    34  10  37 W9G17     29.86S
ROCKY MOUNT    PTCLDY    29  15  56 W6        29.82S
WASHINGTON     CLEAR     32  15  49 W7G18     29.82R
WHITEVILLE     CLOUDY    36  15  43 CALM      29.88S

$$

AMZ130-135-150-152-154-156-158-170-250-252-270-ANZ085-086-088-633-658-670-100800-
MARINE OBSERVATIONS

STATION/POSITION TIME  TEMP    WIND        PRES    WAVE   SWELL
                       AIR SEA DIR/SP/G            HT/PER HT/PER
                 (UTC) (F)     (DEG/KT/KT) (MB)    (FT/S) (FT/S)
CHESAPEAKE LIGHT 0700   36     270/ 23/ 25 1006.8
64 E VA BEACH    0650   41 50  280/ 19/ 23 1005.7    9/13   7/13
DUCK             0700   37     270/ 18/ 21 1006.8
2 E DUCK         0711      44                N/A     4/14   3/14
OREGON INLET     0700   38 46  250/ 12/ 16 1007.9
13E OREGON INLT  0600      47                N/A     7/13   7/13
HATTERAS CG      0700   41 52  260/ 19/ 25 1008.2
DIAMOND BUOY     0650   45 73  290/ 21/ 27 1008.1    9/ 7   5/14
CAPE LOOKOUT     NOT AVBL
BEAUFORT LAB     0700   39 47  300/  9/ 17 1008.9
30 SE NEW RVR IN 0708   44 60              1009.8
30 SE NEW RVR IN 0625      60                N/A     8/ 7   3/11
27 SE WRIGHTSVLE 0708   42 59  290/ 21/ 27 1009.3
5 SE WRIGHTSVLE  0608   40 51  270/ 19/ 25 1011.1
225 S CAPE HAT   0650   54 68  300/ 23/ 29   N/A    20/11  18/11
41 SE CHARLESTON 0650   43 64  280/ 29/ 39 1013.6    8/ 7   2/12

$$



USA.gov is the U.S. government's official web portal to all federal, state and local government web resources and services.